This is the latest recevied weather packets stored in our database for station/object K4AMF. If no packets are shown the sender has not sent any weather packets the latest 10 day(s).
| Time | Temp. | Humidity | Pressure | Rain* | Wind** | Luminosity | Snow |
|---|---|---|---|---|---|---|---|
| 1778153547 | 21.67° C | 90% | 1015.8 hPa | 0 mm | - | 46 W/m² | - |
| 1778153245 | 21.67° C | 90% | 1015.6 hPa | 0 mm | - | 41 W/m² | - |
| 1778152942 | 21.67° C | 90% | 1015.6 hPa | 0 mm | - | 39 W/m² | - |
| 1778152639 | 21.67° C | 90% | 1015.7 hPa | 0 mm | - | 34 W/m² | - |
| 1778152336 | 21.67° C | 91% | 1015.5 hPa | 0 mm | - | 25 W/m² | - |
| 1778152032 | 21.11° C | 91% | 1015.6 hPa | 0 mm | - | 20 W/m² | - |
| 1778151729 | 21.11° C | 91% | 1015.3 hPa | 0 mm | - | 14 W/m² | - |
| 1778151426 | 21.11° C | 91% | 1015.4 hPa | 0 mm | - | 8 W/m² | - |
| 1778151121 | 21.11° C | 91% | 1015.5 hPa | 0 mm | - | 3 W/m² | - |
| 1778150819 | 21.11° C | 91% | 1015.1 hPa | 0 mm | - | 1 W/m² | - |
| 1778150515 | 21.11° C | 91% | 1015.4 hPa | 0 mm | - | 0 W/m² | - |
| 1778150211 | 21.11° C | 90% | 1015.3 hPa | 0 mm | - | 0 W/m² | - |
| 1778149908 | 21.11° C | 90% | 1015.6 hPa | 0 mm | - | 0 W/m² | - |
| 1778149605 | 21.11° C | 90% | 1015.4 hPa | 0 mm | - | 0 W/m² | - |
| 1778149301 | 21.11° C | 90% | 1015.5 hPa | 0 mm | - | 0 W/m² | - |
| 1778148997 | 21.11° C | 90% | 1015.3 hPa | 0 mm | - | 0 W/m² | - |
| 1778148693 | 21.11° C | 90% | 1015.2 hPa | 0 mm | - | 0 W/m² | - |
| 1778148390 | 21.67° C | 89% | 1015.4 hPa | 0 mm | - | 0 W/m² | - |
| 1778148088 | 21.67° C | 89% | 1015.4 hPa | 0 mm | - | 0 W/m² | - |
| 1778147786 | 21.67° C | 89% | 1015.1 hPa | 0 mm | - | 0 W/m² | - |
| 1778147482 | 21.67° C | 89% | 1015.3 hPa | 0 mm | - | 0 W/m² | - |
| 1778147179 | 21.67° C | 88% | 1015.2 hPa | 0 mm | - | 0 W/m² | - |
| 1778146876 | 21.67° C | 88% | 1015.1 hPa | 0 mm | - | 0 W/m² | - |
| 1778146573 | 21.67° C | 88% | 1015 hPa | 0 mm | - | 0 W/m² | - |
| 1778146272 | 21.67° C | 88% | 1015.1 hPa | 0 mm | - | 0 W/m² | - |
* Rain latest hour (hover to see other rain measurements)
** Current wind speed in m/s (hover to see current wind gust speed)